Time,TemperatureF,DewpointF,PressureIn,WindDirection,WindDirectionDegrees,WindSpeedMPH,WindSpeedGustMPH,Humidity,HourlyPrecipIn,Conditions,Clouds,dailyrainin,SoftwareType,DateUTC
2013-02-10 00:01:00,34.0,34.0,29.95,SSE,150,15.0,-999.0,100,-99.99,,,-99.99,,2013-02-10 06:01:00,
2013-02-10 00:11:00,34.0,34.0,29.95,SSE,150,15.0,-999.0,100,-99.99,,,-99.99,,2013-02-10 06:11:00,
2013-02-10 00:21:00,34.0,34.0,29.95,SSE,150,15.0,20.0,100,-99.99,,,-99.99,,2013-02-10 06:21:00,
2013-02-10 00:32:00,36.0,36.0,29.93,SSE,150,16.0,-999.0,100,-99.99,,,-99.99,,2013-02-10 06:32:00,
2013-02-10 00:42:00,36.0,36.0,29.92,SE,140,14.0,-999.0,100,-99.99,,,-99.99,,2013-02-10 06:42:00,
2013-02-10 00:52:00,36.0,36.0,29.92,SSE,150,15.0,-999.0,100,-99.99,,,-99.99,,2013-02-10 06:52:00,
2013-02-10 01:01:00,36.0,36.0,29.92,SSE,150,15.0,-999.0,100,-99.99,,,-99.99,,2013-02-10 07:01:00,
2013-02-10 01:11:00,36.0,36.0,29.92,SSE,150,15.0,-999.0,100,-99.99,,,-99.99,,2013-02-10 07:11:00,
2013-02-10 01:21:00,36.0,36.0,29.91,SSE,150,14.0,-999.0,100,-99.99,,,-99.99,,2013-02-10 07:21:00,
2013-02-10 01:31:00,36.0,36.0,29.91,SSE,150,12.0,-999.0,100,-99.99,,,-99.99,,2013-02-10 07:31:00,
2013-02-10 01:42:00,36.0,36.0,29.91,SSE,150,13.0,-999.0,100,-99.99,,,-99.99,,2013-02-10 07:42:00,
2013-02-10 01:52:00,36.0,36.0,29.90,SE,140,14.0,-999.0,100,-99.99,,,-99.99,,2013-02-10 07:52:00,
2013-02-10 02:01:00,36.0,36.0,29.90,SE,140,14.0,-999.0,100,-99.99,,,-99.99,,2013-02-10 08:01:00,
2013-02-10 02:11:00,36.0,36.0,29.90,SE,140,14.0,-999.0,100,-99.99,,,-99.99,,2013-02-10 08:11:00,
2013-02-10 02:21:00,36.0,36.0,29.88,SE,140,10.0,-999.0,100,-99.99,,,-99.99,,2013-02-10 08:21:00,
2013-02-10 02:32:00,36.0,36.0,29.88,SE,140,9.0,-999.0,100,-99.99,,,-99.99,,2013-02-10 08:32:00,
2013-02-10 02:43:00,36.0,36.0,29.87,SE,140,14.0,-999.0,100,-99.99,,,-99.99,,2013-02-10 08:43:00,
2013-02-10 02:52:00,36.0,36.0,29.85,SE,130,10.0,-999.0,100,-99.99,,,-99.99,,2013-02-10 08:52:00,
2013-02-10 03:02:00,36.0,36.0,29.85,SE,130,10.0,-999.0,100,-99.99,,,-99.99,,2013-02-10 09:02:00,
2013-02-10 03:11:00,36.0,36.0,29.85,SE,130,10.0,-999.0,100,-99.99,,,-99.99,,2013-02-10 09:11:00,
2013-02-10 03:21:00,36.0,36.0,29.84,SE,140,12.0,-999.0,100,-99.99,,,-99.99,,2013-02-10 09:21:00,
2013-02-10 03:31:00,36.0,36.0,29.83,SE,140,13.0,-999.0,100,-99.99,,,-99.99,,2013-02-10 09:31:00,
2013-02-10 03:42:00,36.0,36.0,29.82,SE,140,14.0,-999.0,100,-99.99,,,-99.99,,2013-02-10 09:42:00,
2013-02-10 03:52:00,36.0,36.0,29.82,SSE,150,10.0,-999.0,100,-99.99,,,-99.99,,2013-02-10 09:52:00,
2013-02-10 04:01:00,36.0,36.0,29.82,SSE,150,10.0,-999.0,100,-99.99,,,-99.99,,2013-02-10 10:01:00,
2013-02-10 04:11:00,36.0,36.0,29.82,SSE,150,10.0,-999.0,100,-99.99,,,-99.99,,2013-02-10 10:11:00,
2013-02-10 04:21:00,37.0,37.0,29.80,SE,140,10.0,-999.0,100,-99.99,,,-99.99,,2013-02-10 10:21:00,
2013-02-10 04:31:00,37.0,37.0,29.79,SE,140,10.0,-999.0,100,-99.99,,,-99.99,,2013-02-10 10:31:00,
2013-02-10 04:42:00,37.0,37.0,29.78,SE,140,10.0,-999.0,100,-99.99,,,-99.99,,2013-02-10 10:42:00,
2013-02-10 04:52:00,37.0,37.0,29.77,SE,140,12.0,-999.0,100,-99.99,,,-99.99,,2013-02-10 10:52:00,
2013-02-10 05:01:00,37.0,37.0,29.77,SE,140,12.0,-999.0,100,-99.99,,,-99.99,,2013-02-10 11:01:00,
2013-02-10 05:11:00,37.0,37.0,29.77,SE,140,12.0,-999.0,100,-99.99,,,-99.99,,2013-02-10 11:11:00,
2013-02-10 05:21:00,37.0,37.0,29.77,SE,140,13.0,-999.0,100,-99.99,,,-99.99,,2013-02-10 11:21:00,
2013-02-10 05:32:00,37.0,37.0,29.76,SE,140,12.0,-999.0,100,-99.99,,,-99.99,,2013-02-10 11:32:00,
2013-02-10 05:42:00,37.0,37.0,29.75,SE,140,10.0,-999.0,100,-99.99,,,-99.99,,2013-02-10 11:42:00,
2013-02-10 05:52:00,37.0,37.0,29.73,SE,140,10.0,-999.0,100,-99.99,,,-99.99,,2013-02-10 11:52:00,
2013-02-10 06:01:00,37.0,37.0,29.73,SE,140,10.0,-999.0,100,-99.99,,,-99.99,,2013-02-10 12:01:00,
2013-02-10 06:12:00,37.0,37.0,29.73,SE,140,10.0,-999.0,100,-99.99,,,-99.99,,2013-02-10 12:12:00,
2013-02-10 06:21:00,37.0,37.0,29.72,SE,140,14.0,-999.0,100,-99.99,,,-99.99,,2013-02-10 12:21:00,
2013-02-10 06:32:00,37.0,37.0,29.72,SE,140,14.0,-999.0,100,-99.99,,,-99.99,,2013-02-10 12:32:00,
2013-02-10 06:42:00,39.0,39.0,29.72,SSE,150,16.0,20.0,100,-99.99,,,-99.99,,2013-02-10 12:42:00,
2013-02-10 06:52:00,39.0,39.0,29.70,SE,140,15.0,-999.0,100,-99.99,,,-99.99,,2013-02-10 12:52:00,
2013-02-10 07:02:00,39.0,39.0,29.70,SE,140,15.0,-999.0,100,-99.99,,,-99.99,,2013-02-10 13:02:00,
2013-02-10 07:11:00,39.0,39.0,29.70,SE,140,15.0,-999.0,100,-99.99,,,-99.99,,2013-02-10 13:11:00,
2013-02-10 07:21:00,39.0,39.0,29.69,SE,140,14.0,-999.0,100,-99.99,,,-99.99,,2013-02-10 13:21:00,
2013-02-10 07:31:00,39.0,39.0,29.70,SSE,150,15.0,21.0,100,-99.99,,,-99.99,,2013-02-10 13:31:00,
2013-02-10 07:42:00,39.0,39.0,29.69,SSE,150,14.0,-999.0,100,-99.99,,,-99.99,,2013-02-10 13:42:00,
2013-02-10 07:52:00,39.0,39.0,29.68,SSE,150,14.0,-999.0,100,-99.99,,,-99.99,,2013-02-10 13:52:00,
2013-02-10 08:02:00,39.0,39.0,29.68,SSE,150,14.0,-999.0,100,-99.99,,,-99.99,,2013-02-10 14:02:00,
2013-02-10 08:11:00,39.0,39.0,29.68,SSE,150,14.0,-999.0,100,-99.99,,,-99.99,,2013-02-10 14:11:00,
2013-02-10 08:22:00,41.0,-99.9,29.65,SE,140,15.0,-999.0,-999,-99.99,,,-99.99,,2013-02-10 14:22:00,
2013-02-10 08:32:00,41.0,41.0,29.65,SSE,150,14.0,-999.0,100,-99.99,,,-99.99,,2013-02-10 14:32:00,
2013-02-10 08:42:00,41.0,41.0,29.65,SSE,150,13.0,-999.0,100,-99.99,,,-99.99,,2013-02-10 14:42:00,
2013-02-10 08:52:00,43.0,43.0,29.64,SSE,150,12.0,-999.0,100,-99.99,,,-99.99,,2013-02-10 14:52:00,
2013-02-10 09:01:00,43.0,43.0,29.64,SSE,150,12.0,-999.0,100,-99.99,,,-99.99,,2013-02-10 15:01:00,
2013-02-10 09:11:00,43.0,43.0,29.64,SSE,150,12.0,-999.0,100,-99.99,,,-99.99,,2013-02-10 15:11:00,
2013-02-10 09:22:00,43.0,-99.9,29.62,SSE,150,15.0,-999.0,-999,-99.99,,,-99.99,,2013-02-10 15:22:00,
2013-02-10 09:32:00,45.0,-99.9,29.60,SSE,150,15.0,-999.0,-999,-99.99,,,-99.99,,2013-02-10 15:32:00,
2013-02-10 09:42:00,45.0,-99.9,29.61,SSE,150,15.0,-999.0,-999,-99.99,,,-99.99,,2013-02-10 15:42:00,
2013-02-10 09:52:00,45.0,-99.9,29.60,SSE,160,17.0,21.0,-999,-99.99,,,-99.99,,2013-02-10 15:52:00,
2013-02-10 10:02:00,45.0,-99.9,29.60,SSE,160,17.0,21.0,-999,-99.99,,,-99.99,,2013-02-10 16:02:00,
2013-02-10 10:12:00,45.0,-99.9,29.60,SSE,160,17.0,21.0,-999,-99.99,,,-99.99,,2013-02-10 16:12:00,
2013-02-10 10:21:00,48.0,48.0,29.59,SSE,160,21.0,27.0,100,-99.99,,,-99.99,,2013-02-10 16:21:00,
2013-02-10 10:32:00,48.0,48.0,29.59,SSE,160,17.0,28.0,100,-99.99,,,-99.99,,2013-02-10 16:32:00,
2013-02-10 10:42:00,48.0,48.0,29.59,South,170,21.0,25.0,100,-99.99,,,-99.99,,2013-02-10 16:42:00,
2013-02-10 10:52:00,48.0,48.0,29.58,South,170,18.0,27.0,100,-99.99,,,-99.99,,2013-02-10 16:52:00,
2013-02-10 11:01:00,48.0,48.0,29.58,South,170,18.0,27.0,100,-99.99,,,-99.99,,2013-02-10 17:01:00,
2013-02-10 11:11:00,48.0,48.0,29.58,South,170,18.0,27.0,100,-99.99,,,-99.99,,2013-02-10 17:11:00,
2013-02-10 11:21:00,48.0,48.0,29.58,South,170,18.0,24.0,100,-99.99,,,-99.99,,2013-02-10 17:21:00,
2013-02-10 11:32:00,50.0,50.0,29.57,South,170,18.0,23.0,100,-99.99,,,-99.99,,2013-02-10 17:32:00,
2013-02-10 11:42:00,50.0,48.0,29.57,South,180,20.0,25.0,93,-99.99,,,-99.99,,2013-02-10 17:42:00,
2013-02-10 11:52:00,50.0,48.0,29.57,South,180,17.0,28.0,93,-99.99,,,-99.99,,2013-02-10 17:52:00,
2013-02-10 12:02:00,50.0,48.0,29.57,South,180,17.0,28.0,93,-99.99,,,-99.99,,2013-02-10 18:02:00,
2013-02-10 12:11:00,50.0,48.0,29.57,South,180,17.0,28.0,93,-99.99,,,-99.99,,2013-02-10 18:11:00,
2013-02-10 12:21:00,50.0,48.0,29.55,South,180,20.0,27.0,93,-99.99,,,-99.99,,2013-02-10 18:21:00,
2013-02-10 12:32:00,52.0,48.0,29.55,South,180,22.0,25.0,87,-99.99,,,-99.99,,2013-02-10 18:32:00,
2013-02-10 12:42:00,54.0,50.0,29.54,South,190,21.0,28.0,87,-99.99,,,-99.99,,2013-02-10 18:42:00,
2013-02-10 12:52:00,54.0,50.0,29.54,South,190,20.0,28.0,87,-99.99,,,-99.99,,2013-02-10 18:52:00,
2013-02-10 13:01:00,54.0,50.0,29.54,South,190,20.0,28.0,87,-99.99,,,-99.99,,2013-02-10 19:01:00,
2013-02-10 13:11:00,54.0,50.0,29.54,South,190,20.0,28.0,87,-99.99,,,-99.99,,2013-02-10 19:11:00,
2013-02-10 13:21:00,54.0,50.0,29.52,SSW,200,25.0,31.0,87,-99.99,,,-99.99,,2013-02-10 19:21:00,
2013-02-10 13:32:00,55.0,50.0,29.52,SSW,200,18.0,33.0,81,-99.99,,,-99.99,,2013-02-10 19:32:00,
2013-02-10 13:43:00,55.0,52.0,29.50,SSW,200,23.0,32.0,87,-99.99,,,-99.99,,2013-02-10 19:43:00,
2013-02-10 13:52:00,55.0,50.0,29.50,South,180,22.0,31.0,81,-99.99,,,-99.99,,2013-02-10 19:52:00,
2013-02-10 14:02:00,55.0,50.0,29.50,South,180,22.0,31.0,81,-99.99,,,-99.99,,2013-02-10 20:02:00,
2013-02-10 14:11:00,55.0,50.0,29.50,South,180,22.0,31.0,81,-99.99,,,-99.99,,2013-02-10 20:11:00,
2013-02-10 14:21:00,57.0,50.0,29.49,SSW,200,22.0,33.0,76,-99.99,,,-99.99,,2013-02-10 20:21:00,
2013-02-10 14:32:00,57.0,48.0,29.49,SSW,200,25.0,33.0,71,-99.99,,,-99.99,,2013-02-10 20:32:00,
2013-02-10 14:42:00,59.0,46.0,29.49,SSW,200,23.0,38.0,62,-99.99,,,-99.99,,2013-02-10 20:42:00,
2013-02-10 14:52:00,57.0,46.0,29.49,SSW,210,31.0,35.0,67,-99.99,,,-99.99,,2013-02-10 20:52:00,
2013-02-10 15:02:00,57.0,46.0,29.49,SSW,210,31.0,35.0,67,-99.99,,,-99.99,,2013-02-10 21:02:00,
2013-02-10 15:11:00,57.0,46.0,29.49,SSW,210,31.0,35.0,67,-99.99,,,-99.99,,2013-02-10 21:11:00,
2013-02-10 15:21:00,59.0,39.0,29.50,SW,220,23.0,37.0,47,-99.99,,,-99.99,,2013-02-10 21:21:00,
2013-02-10 15:32:00,59.0,37.0,29.50,SSW,210,22.0,29.0,44,-99.99,,,-99.99,,2013-02-10 21:32:00,
2013-02-10 15:42:00,59.0,36.0,29.50,SW,220,29.0,40.0,41,-99.99,,,-99.99,,2013-02-10 21:42:00,
2013-02-10 15:52:00,57.0,34.0,29.50,SSW,210,27.0,41.0,41,-99.99,,,-99.99,,2013-02-10 21:52:00,
2013-02-10 16:11:00,57.0,34.0,29.50,SSW,210,27.0,41.0,41,-99.99,,,-99.99,,2013-02-10 22:11:00,
2013-02-10 16:21:00,57.0,34.0,29.50,SSW,210,27.0,41.0,41,-99.99,,,-99.99,,2013-02-10 22:21:00,
2013-02-10 16:32:00,57.0,34.0,29.50,SSW,210,29.0,37.0,41,-99.99,,,-99.99,,2013-02-10 22:32:00,
2013-02-10 16:42:00,57.0,34.0,29.52,SW,220,21.0,32.0,41,-99.99,,,-99.99,,2013-02-10 22:42:00,
2013-02-10 16:52:00,57.0,34.0,29.52,SW,220,23.0,32.0,41,-99.99,,,-99.99,,2013-02-10 22:52:00,
2013-02-10 17:02:00,57.0,34.0,29.52,SW,220,23.0,32.0,41,-99.99,,,-99.99,,2013-02-10 23:02:00,
2013-02-10 17:11:00,57.0,34.0,29.52,SW,220,23.0,32.0,41,-99.99,,,-99.99,,2013-02-10 23:11:00,
2013-02-10 17:22:00,54.0,36.0,29.56,WSW,240,22.0,33.0,50,-99.99,,,-99.99,,2013-02-10 23:22:00,
2013-02-10 17:32:00,54.0,36.0,29.57,WSW,250,24.0,31.0,50,-99.99,,,-99.99,,2013-02-10 23:32:00,
2013-02-10 17:42:00,52.0,36.0,29.58,WSW,250,21.0,29.0,53,-99.99,,,-99.99,,2013-02-10 23:42:00,
2013-02-10 17:52:00,50.0,36.0,29.59,WSW,240,18.0,25.0,57,-99.99,,,-99.99,,2013-02-10 23:52:00,
2013-02-10 18:22:00,50.0,36.0,29.61,WSW,240,15.0,21.0,57,-99.99,,,-99.99,,2013-02-11 00:22:00,
2013-02-10 18:32:00,50.0,34.0,29.62,SW,230,27.0,33.0,53,-99.99,,,-99.99,,2013-02-11 00:32:00,
2013-02-10 18:42:00,48.0,34.0,29.62,WSW,240,21.0,32.0,57,-99.99,,,-99.99,,2013-02-11 00:42:00,
2013-02-10 18:52:00,48.0,34.0,29.63,WSW,240,23.0,36.0,57,-99.99,,,-99.99,,2013-02-11 00:52:00,
2013-02-10 19:01:00,48.0,34.0,29.63,WSW,240,23.0,36.0,57,-99.99,,,-99.99,,2013-02-11 01:01:00,
2013-02-10 19:11:00,48.0,34.0,29.63,WSW,240,23.0,36.0,57,-99.99,,,-99.99,,2013-02-11 01:11:00,
2013-02-10 19:21:00,48.0,34.0,29.65,SW,230,20.0,38.0,57,-99.99,,,-99.99,,2013-02-11 01:21:00,
2013-02-10 19:32:00,48.0,34.0,29.65,SW,230,21.0,35.0,57,-99.99,,,-99.99,,2013-02-11 01:32:00,
2013-02-10 19:42:00,48.0,34.0,29.65,WSW,240,18.0,30.0,57,-99.99,,,-99.99,,2013-02-11 01:42:00,
2013-02-10 19:52:00,46.0,34.0,29.66,WSW,240,21.0,28.0,61,-99.99,,,-99.99,,2013-02-11 01:52:00,
2013-02-10 20:01:00,46.0,34.0,29.66,WSW,240,21.0,28.0,61,-99.99,,,-99.99,,2013-02-11 02:01:00,
2013-02-10 20:11:00,46.0,34.0,29.66,WSW,240,21.0,28.0,61,-99.99,,,-99.99,,2013-02-11 02:11:00,
2013-02-10 20:21:00,45.0,34.0,29.67,WSW,240,16.0,27.0,65,-99.99,,,-99.99,,2013-02-11 02:21:00,
2013-02-10 20:31:00,45.0,32.0,29.67,WSW,240,18.0,24.0,61,-99.99,,,-99.99,,2013-02-11 02:31:00,
2013-02-10 20:42:00,46.0,32.0,29.68,WSW,240,21.0,30.0,57,-99.99,,,-99.99,,2013-02-11 02:42:00,
2013-02-10 20:52:00,45.0,32.0,29.69,WSW,240,28.0,35.0,61,-99.99,,,-99.99,,2013-02-11 02:52:00,
2013-02-10 21:02:00,45.0,32.0,29.69,WSW,240,28.0,35.0,61,-99.99,,,-99.99,,2013-02-11 03:02:00,
2013-02-10 21:11:00,45.0,32.0,29.69,WSW,240,28.0,35.0,61,-99.99,,,-99.99,,2013-02-11 03:11:00,
2013-02-10 21:21:00,43.0,32.0,29.70,WSW,250,23.0,28.0,65,-99.99,,,-99.99,,2013-02-11 03:21:00,
2013-02-10 21:31:00,43.0,32.0,29.71,West,260,18.0,27.0,65,-99.99,,,-99.99,,2013-02-11 03:31:00,
2013-02-10 21:42:00,41.0,32.0,29.72,WSW,250,27.0,36.0,70,-99.99,,,-99.99,,2013-02-11 03:42:00,
2013-02-10 21:52:00,41.0,32.0,29.72,WSW,250,28.0,36.0,70,-99.99,,,-99.99,,2013-02-11 03:52:00,
2013-02-10 22:01:00,41.0,32.0,29.72,WSW,250,28.0,36.0,70,-99.99,,,-99.99,,2013-02-11 04:01:00,
2013-02-10 22:11:00,41.0,32.0,29.72,WSW,250,28.0,36.0,70,-99.99,,,-99.99,,2013-02-11 04:11:00,
2013-02-10 22:21:00,39.0,30.0,29.73,WSW,240,28.0,37.0,69,-99.99,,,-99.99,,2013-02-11 04:21:00,
2013-02-10 22:31:00,41.0,30.0,29.73,WSW,240,25.0,39.0,65,-99.99,,,-99.99,,2013-02-11 04:31:00,
2013-02-10 22:42:00,39.0,28.0,29.74,WSW,240,31.0,38.0,64,-99.99,,,-99.99,,2013-02-11 04:42:00,
2013-02-10 22:52:00,39.0,28.0,29.75,WSW,240,27.0,37.0,64,-99.99,,,-99.99,,2013-02-11 04:52:00,
2013-02-10 23:01:00,39.0,28.0,29.75,WSW,240,27.0,37.0,64,-99.99,,,-99.99,,2013-02-11 05:01:00,
2013-02-10 23:11:00,39.0,28.0,29.75,WSW,240,27.0,37.0,64,-99.99,,,-99.99,,2013-02-11 05:11:00,
2013-02-10 23:22:00,39.0,28.0,29.77,WSW,250,22.0,40.0,64,-99.99,,,-99.99,,2013-02-11 05:22:00,
2013-02-10 23:31:00,39.0,28.0,29.77,WSW,250,27.0,36.0,64,-99.99,,,-99.99,,2013-02-11 05:31:00,
2013-02-10 23:42:00,39.0,28.0,29.78,WSW,240,27.0,35.0,64,-99.99,,,-99.99,,2013-02-11 05:42:00,
2013-02-10 23:53:00,39.0,28.0,29.79,WSW,250,27.0,39.0,64,-99.99,,,-99.99,,2013-02-11 05:53:00,